This demonstration page uses our WeatherBlox Daily Observations layout. Learn more.

Left ArrowRight Arrow

Hourly Observations for September 14, 2022

Temp ( °F °C ) Dew Point ( °F °C ) Humidity (%) Winds ( mph kmh ) Pressure ( in mb ) Visibility ( mi km ) Precip ( " mm )
12:53 am 00:53 Clear 71 21.7 54 12.2 55 55 S 10 17 29.85 1011 10 16 0.00 0.00
1:53 am 01:53 Clear 70 21.1 54 12.2 57 57 S 10 17 29.86 1011 10 16 0.00 0.00
2:53 am 02:53 Clear 68 20 54 12.2 61 61 S 8 13 29.86 1011 10 16 0.00 0.00
3:53 am 03:53 Clear 67 19.4 54 12.2 63 63 SSE 8 13 29.86 1011 10 16 0.00 0.00
4:53 am 04:53 Clear 66 18.9 55 12.8 68 68 S 7 11 29.87 1011 10 16 0.00 0.00
5:53 am 05:53 Clear 65 18.3 55 12.8 70 70 SSE 8 13 29.87 1012 10 16 0.00 0.00
6:53 am 06:53 Clear 63 17.2 54 12.2 72 72 SSE 8 13 29.89 1012 10 16 0.00 0.00
7:53 am 07:53 Sunny 63 17.2 54 12.2 72 72 SSE 9 15 29.90 1013 10 16 0.00 0.00
8:53 am 08:53 Sunny 66 18.9 55 12.8 68 68 SSE 10 17 29.91 1013 10 16 0.00 0.00
9:53 am 09:53 Sunny 71 21.7 59 15 66 66 S 12 19 29.91 1013 10 16 0.00 0.00
10:53 am 10:53 Sunny 78 25.6 60 15.6 54 54 S 12 19 29.91 1013 10 16 0.00 0.00
11:53 am 11:53 Sunny 79 26.1 60 15.6 52 52 S 13 20 29.91 1013 10 16 0.00 0.00
12:53 pm 12:53 Sunny 83 28.3 61 16.1 48 48 SSE 13 20 29.90 1013 10 16 0.00 0.00
1:53 pm 13:53 Sunny 84 28.9 61 16.1 46 46 SSE 14 22 29.89 1012 10 16 0.00 0.00
2:53 pm 14:53 Sunny 86 30 60 15.6 42 42 SSE 14 22 29.88 1012 10 16 0.00 0.00
3:53 pm 15:53 Sunny 86 30 61 16.1 43 43 SE 10 17 29.86 1011 10 16 0.00 0.00
4:53 pm 16:53 Sunny 87 30.6 59 15 39 39 SSE 10 17 29.85 1011 10 16 0.00 0.00
5:53 pm 17:53 Sunny 87 30.6 59 15 39 39 SSE 14 22 29.84 1011 10 16 0.00 0.00
6:53 pm 18:53 Sunny 85 29.4 57 13.9 39 39 SSE 15 24 29.85 1011 10 16 0.00 0.00
7:53 pm 19:53 Clear 83 28.3 57 13.9 41 41 SSE 12 19 29.86 1011 10 16 0.00 0.00
8:53 pm 20:53 Clear 80 26.7 56 13.3 44 44 SSE 13 20 29.88 1012 10 16 0.00 0.00
9:53 pm 21:53 Clear 79 26.1 56 13.3 45 45 SSE 13 20 29.89 1012 10 16 0.00 0.00
10:53 pm 22:53 Clear 77 25 57 13.9 50 50 SSE 13 20 29.90 1013 10 16 0.00 0.00
11:53 pm 23:53 Clear 75 23.9 58 14.4 55 55 S 13 20 29.92 1013 10 16 0.00 0.00

Powered by AerisWeather